TimeCST,TemperatureF,Dew PointF,Humidity,Sea Level PressureIn,VisibilityMPH,Wind Direction,Wind SpeedMPH,Gust SpeedMPH,PrecipitationIn,Events,Conditions,WindDirDegrees,DateUTC
12:15 AM,12.2,3.2,67,30.15,10.0,ESE,6.9,-,N/A,,Clear,110,2013-02-17 06:15:00
12:35 AM,12.2,3.2,67,30.15,10.0,ESE,6.9,-,N/A,,Clear,110,2013-02-17 06:35:00
12:55 AM,12.2,3.2,67,30.15,10.0,ESE,5.8,-,N/A,,Clear,110,2013-02-17 06:55:00
1:15 AM,12.2,3.2,67,30.15,10.0,ESE,4.6,-,N/A,,Clear,110,2013-02-17 07:15:00
1:35 AM,12.2,3.2,67,30.15,10.0,ESE,4.6,-,N/A,,Clear,110,2013-02-17 07:35:00
1:55 AM,12.2,3.2,67,30.15,10.0,ESE,6.9,-,N/A,,Clear,110,2013-02-17 07:55:00
2:15 AM,10.4,3.2,73,30.14,10.0,ESE,5.8,-,N/A,,Clear,110,2013-02-17 08:15:00
2:35 AM,10.4,3.2,73,30.14,10.0,East,5.8,-,N/A,,Clear,100,2013-02-17 08:35:00
2:55 AM,10.4,3.2,73,30.15,10.0,ESE,4.6,-,N/A,,Clear,120,2013-02-17 08:55:00
3:15 AM,10.4,3.2,73,30.14,10.0,East,4.6,-,N/A,,Clear,100,2013-02-17 09:15:00
3:35 AM,10.4,3.2,73,30.14,10.0,ESE,5.8,-,N/A,,Clear,120,2013-02-17 09:35:00
3:55 AM,10.4,3.2,73,30.15,10.0,SE,3.5,-,N/A,,Clear,130,2013-02-17 09:55:00
4:15 AM,10.4,1.4,67,30.14,10.0,ESE,4.6,-,N/A,,Clear,120,2013-02-17 10:15:00
4:35 AM,10.4,3.2,73,30.15,10.0,ESE,4.6,-,N/A,,Clear,120,2013-02-17 10:35:00
4:55 AM,10.4,3.2,73,30.15,10.0,SE,4.6,-,N/A,,Clear,130,2013-02-17 10:55:00
5:15 AM,10.4,3.2,73,30.15,10.0,SE,4.6,-,N/A,,Clear,130,2013-02-17 11:15:00
5:35 AM,10.4,3.2,73,30.15,10.0,ESE,4.6,-,N/A,,Clear,120,2013-02-17 11:35:00
5:55 AM,10.4,3.2,73,30.15,10.0,SE,4.6,-,N/A,,Clear,140,2013-02-17 11:55:00
6:15 AM,10.4,3.2,73,30.15,10.0,SE,4.6,-,N/A,,Clear,130,2013-02-17 12:15:00
6:35 AM,10.4,3.2,73,30.15,10.0,ESE,5.8,-,N/A,,Clear,120,2013-02-17 12:35:00
6:55 AM,10.4,3.2,73,30.14,10.0,SE,5.8,-,N/A,,Clear,130,2013-02-17 12:55:00
7:15 AM,10.4,3.2,73,30.14,10.0,SE,4.6,-,N/A,,Clear,130,2013-02-17 13:15:00
7:35 AM,10.4,3.2,73,30.14,10.0,ESE,5.8,-,N/A,,Clear,120,2013-02-17 13:35:00
7:55 AM,12.2,5.0,73,30.14,10.0,SE,5.8,-,N/A,,Clear,130,2013-02-17 13:55:00
8:15 AM,14.0,5.0,67,30.14,10.0,SE,6.9,-,N/A,,Clear,140,2013-02-17 14:15:00
8:35 AM,14.0,6.8,73,30.14,10.0,SSE,8.1,-,N/A,,Clear,150,2013-02-17 14:35:00
8:55 AM,17.6,8.6,68,30.13,10.0,SSE,10.4,-,N/A,,Clear,160,2013-02-17 14:55:00
9:15 AM,17.6,8.6,68,30.13,10.0,SSE,11.5,-,N/A,,Clear,150,2013-02-17 15:15:00
9:35 AM,17.6,8.6,68,30.13,10.0,SE,10.4,-,N/A,,Clear,140,2013-02-17 15:35:00
9:55 AM,19.4,8.6,63,30.13,10.0,SSE,9.2,-,N/A,,Clear,150,2013-02-17 15:55:00
10:15 AM,19.4,10.4,68,30.13,10.0,SSE,10.4,-,N/A,,Clear,150,2013-02-17 16:15:00
10:35 AM,21.2,10.4,63,30.14,10.0,SSE,11.5,-,N/A,,Clear,150,2013-02-17 16:35:00
10:55 AM,21.2,10.4,63,30.14,10.0,SSE,10.4,-,N/A,,Clear,160,2013-02-17 16:55:00
11:15 AM,23.0,12.2,63,30.13,10.0,SE,9.2,-,N/A,,Clear,130,2013-02-17 17:15:00
11:35 AM,23.0,12.2,63,30.12,10.0,SE,11.5,-,N/A,,Clear,140,2013-02-17 17:35:00
11:55 AM,24.8,12.2,59,30.11,10.0,SE,9.2,-,N/A,,Clear,140,2013-02-17 17:55:00
12:15 PM,26.6,14.0,59,30.10,10.0,SE,10.4,-,N/A,,Clear,130,2013-02-17 18:15:00
12:55 PM,26.6,14.0,59,30.07,10.0,ESE,12.7,-,N/A,,Clear,120,2013-02-17 18:55:00
1:15 PM,28.4,15.8,59,30.06,10.0,SSE,10.4,-,N/A,,Clear,150,2013-02-17 19:15:00
1:35 PM,28.4,17.6,64,30.06,10.0,SE,13.8,-,N/A,,Clear,140,2013-02-17 19:35:00
1:55 PM,28.4,17.6,64,30.04,10.0,SE,11.5,-,N/A,,Clear,140,2013-02-17 19:55:00
2:15 PM,30.2,17.6,60,30.03,10.0,SE,11.5,-,N/A,,Clear,130,2013-02-17 20:15:00
2:35 PM,30.2,17.6,60,30.01,10.0,SE,15.0,-,N/A,,Clear,140,2013-02-17 20:35:00
2:55 PM,30.2,17.6,60,30.01,10.0,SE,11.5,-,N/A,,Clear,130,2013-02-17 20:55:00
3:15 PM,30.2,17.6,60,30.01,10.0,SE,12.7,-,N/A,,Clear,130,2013-02-17 21:15:00
3:35 PM,30.2,19.4,64,30.01,10.0,SE,11.5,-,N/A,,Clear,140,2013-02-17 21:35:00
3:55 PM,32.0,19.4,60,29.99,10.0,SE,12.7,-,N/A,,Clear,130,2013-02-17 21:55:00
4:15 PM,32.0,19.4,60,29.98,10.0,SE,13.8,-,N/A,,Clear,140,2013-02-17 22:15:00
4:35 PM,30.2,19.4,64,29.97,10.0,SE,15.0,-,N/A,,Clear,130,2013-02-17 22:35:00
4:55 PM,30.2,19.4,64,29.97,10.0,SE,15.0,-,N/A,,Clear,130,2013-02-17 22:55:00
5:15 PM,30.2,19.4,64,29.96,10.0,SE,13.8,18.4,N/A,,Clear,130,2013-02-17 23:15:00
5:35 PM,30.2,19.4,64,29.96,10.0,SE,13.8,18.4,N/A,,Clear,130,2013-02-17 23:35:00
5:55 PM,30.2,19.4,64,29.96,10.0,SE,13.8,-,N/A,,Clear,130,2013-02-17 23:55:00
6:15 PM,30.2,19.4,64,29.95,10.0,SE,11.5,-,N/A,,Clear,130,2013-02-18 00:15:00
6:35 PM,28.4,19.4,69,29.94,10.0,SE,12.7,-,N/A,,Clear,130,2013-02-18 00:35:00
6:55 PM,28.4,19.4,69,29.92,10.0,SE,13.8,18.4,N/A,,Clear,130,2013-02-18 00:55:00
7:15 PM,28.4,19.4,69,29.93,10.0,SE,12.7,-,N/A,,Clear,130,2013-02-18 01:15:00
7:35 PM,28.4,19.4,69,29.92,10.0,SE,13.8,19.6,N/A,,Clear,130,2013-02-18 01:35:00
7:55 PM,28.4,21.2,74,29.92,10.0,SE,12.7,18.4,N/A,,Clear,130,2013-02-18 01:55:00
8:15 PM,28.4,21.2,74,29.91,10.0,SE,12.7,-,N/A,,Clear,140,2013-02-18 02:15:00
8:35 PM,28.4,21.2,74,29.91,10.0,SE,16.1,-,N/A,,Clear,130,2013-02-18 02:35:00
8:55 PM,30.2,21.2,69,29.90,10.0,SE,15.0,-,N/A,,Clear,140,2013-02-18 02:55:00
9:15 PM,30.2,21.2,69,29.90,10.0,SE,15.0,-,N/A,,Clear,140,2013-02-18 03:15:00
9:35 PM,30.2,21.2,69,29.89,10.0,SE,15.0,-,N/A,,Clear,130,2013-02-18 03:35:00
9:55 PM,30.2,21.2,69,29.88,10.0,SE,13.8,-,N/A,,Clear,130,2013-02-18 03:55:00
10:15 PM,30.2,21.2,69,29.86,10.0,SE,16.1,-,N/A,,Clear,130,2013-02-18 04:15:00
10:35 PM,30.2,21.2,69,29.85,10.0,SE,17.3,-,N/A,,Clear,140,2013-02-18 04:35:00
10:55 PM,30.2,21.2,69,29.84,10.0,SE,16.1,-,N/A,,Clear,130,2013-02-18 04:55:00
11:15 PM,30.2,21.2,69,29.84,10.0,SE,15.0,-,N/A,,Clear,130,2013-02-18 05:15:00
11:35 PM,30.2,21.2,69,29.84,10.0,SE,13.8,-,N/A,,Clear,140,2013-02-18 05:35:00
11:55 PM,30.2,21.2,69,29.83,10.0,SE,12.7,-,N/A,,Clear,140,2013-02-18 05:55:00